• In Belarus
  • List of Countries
  • For 7 days
  • Water Temperature
  • Weather Map
  • Weather Widgets
  • user-avatar
    Login

    Hourly Weather Djelfa

    Today, 28 February, Friday

    Time Temperature Precipitation Wind Pressure Humidity
    00:00 +8°C° 0 mm 3 mps 667 mmHg 58%
    01:00 +8°C° 0 mm 3 mps 666 mmHg 60%
    02:00 +7°C° 0 mm 3 mps 666 mmHg 62%
    03:00 +7°C° 0 mm 3 mps 666 mmHg 64%
    04:00 +7°C° 0 mm 3 mps 666 mmHg 63%
    05:00 +5°C° 0 mm 3 mps 666 mmHg 61%
    06:00 +5°C° 0 mm 3 mps 666 mmHg 60%
    07:00 +8°C° 0 mm 3 mps 667 mmHg 51%
    08:00 +10°C° 0 mm 3 mps 668 mmHg 43%
    09:00 +12°C° 0 mm 3 mps 668 mmHg 34%
    10:00 +14°C° 0 mm 2 mps 668 mmHg 29%
    11:00 +15°C° 0 mm 2 mps 669 mmHg 24%
    12:00 +18°C° 0 mm 1 mps 669 mmHg 18%
    13:00 +18°C° 0 mm 2 mps 668 mmHg 17%
    14:00 +18°C° 0 mm 2 mps 668 mmHg 16%
    15:00 +19°C° 0 mm 3 mps 668 mmHg 15%
    16:00 +17°C° 0 mm 2 mps 667 mmHg 19%
    17:00 +16°C° 0 mm 1 mps 667 mmHg 24%
    18:00 +14°C° 0 mm 1 mps 666 mmHg 28%
    19:00 +14°C° 0 mm 1 mps 666 mmHg 27%
    20:00 +13°C° 0 mm 2 mps 667 mmHg 27%
    21:00 +12°C° 0 mm 3 mps 667 mmHg 26%
    22:00 +12°C° 0 mm 3 mps 667 mmHg 25%
    23:00 +12°C° 0 mm 4 mps 666 mmHg 24%

    Tomorrow, 29 February, Saturday

    Time Temperature Precipitation Wind Pressure Humidity
    00:00 +11°C° 0 mm 4 mps 666 mmHg 24%
    01:00 +11°C° 0 mm 4 mps 666 mmHg 24%
    02:00 +10°C° 0 mm 4 mps 665 mmHg 25%
    03:00 +10°C° 0 mm 3 mps 665 mmHg 26%
    04:00 +10°C° 0 mm 3 mps 665 mmHg 27%
    05:00 +10°C° 0 mm 3 mps 665 mmHg 28%
    06:00 +10°C° 0 mm 3 mps 665 mmHg 28%
    07:00 +12°C° 0 mm 4 mps 665 mmHg 27%
    08:00 +14°C° 0 mm 4 mps 666 mmHg 26%
    09:00 +16°C° 0 mm 5 mps 666 mmHg 24%
    10:00 +17°C° 0 mm 6 mps 667 mmHg 22%
    11:00 +19°C° 0 mm 6 mps 667 mmHg 19%
    12:00 +21°C° 0 mm 7 mps 667 mmHg 16%
    13:00 +21°C° 0 mm 7 mps 666 mmHg 17%
    14:00 +21°C° 0 mm 7 mps 666 mmHg 17%
    15:00 +21°C° 0 mm 7 mps 665 mmHg 17%
    16:00 +20°C° 0 mm 6 mps 665 mmHg 21%
    17:00 +17°C° 0 mm 5 mps 665 mmHg 24%
    18:00 +17°C° 0 mm 4 mps 665 mmHg 28%
    19:00 +16°C° 0 mm 3 mps 665 mmHg 34%
    20:00 +13°C° 0 mm 3 mps 665 mmHg 41%
    21:00 +13°C° 0 mm 2 mps 665 mmHg 48%
    22:00 +13°C° 0 mm 2 mps 665 mmHg 48%
    23:00 +12°C° 0 mm 3 mps 664 mmHg 48%

    Day after tomorrow, 1 March, Sunday

    Time Temperature Precipitation Wind Pressure Humidity
    00:00 +11°C° 0 mm 3 mps 664 mmHg 48%
    01:00 +11°C° 0 mm 3 mps 664 mmHg 50%
    02:00 +10°C° 0 mm 3 mps 664 mmHg 52%
    03:00 +10°C° 0 mm 2 mps 663 mmHg 53%
    04:00 +9°C° 0 mm 3 mps 663 mmHg 54%
    05:00 +8°C° 0 mm 4 mps 663 mmHg 54%
    06:00 +8°C° 0 mm 5 mps 663 mmHg 54%
    07:00 +9°C° 0 mm 6 mps 664 mmHg 51%
    08:00 +10°C° 0 mm 6 mps 664 mmHg 48%
    09:00 +11°C° 0 mm 7 mps 665 mmHg 45%
    10:00 +12°C° 0 mm 7 mps 665 mmHg 43%
    11:00 +14°C° 0 mm 7 mps 665 mmHg 41%
    12:00 +15°C° 0 mm 7 mps 665 mmHg 39%
    13:00 +16°C° 0 mm 6 mps 665 mmHg 39%
    14:00 +16°C° 0 mm 6 mps 665 mmHg 38%
    15:00 +16°C° 0 mm 6 mps 664 mmHg 38%
    16:00 +15°C° 0 mm 5 mps 664 mmHg 42%
    17:00 +14°C° 0 mm 5 mps 664 mmHg 47%
    18:00 +13°C° 0 mm 4 mps 664 mmHg 51%
    19:00 +12°C° 0 mm 4 mps 664 mmHg 61%
    20:00 +11°C° 0 mm 4 mps 664 mmHg 71%
    21:00 +9°C° 0 mm 5 mps 665 mmHg 80%
    22:00 +10°C° 0 mm 4 mps 664 mmHg 81%
    23:00 +10°C° 0 mm 4 mps 664 mmHg 82%

    2 March, Monday

    Time Temperature Precipitation Wind Pressure Humidity
    00:00 +10°C° 0 mm 4 mps 664 mmHg 82%
    01:00 +9°C° 0 mm 3 mps 664 mmHg 79%
    02:00 +9°C° 0 mm 3 mps 663 mmHg 76%
    03:00 +9°C° 0 mm 3 mps 663 mmHg 72%
    04:00 +9°C° 0 mm 3 mps 663 mmHg 72%
    05:00 +9°C° 0 mm 3 mps 662 mmHg 72%
    06:00 +9°C° 0 mm 3 mps 662 mmHg 72%
    07:00 +9°C° 0 mm 5 mps 663 mmHg 66%
    08:00 +11°C° 0 mm 7 mps 663 mmHg 59%
    09:00 +12°C° 0 mm 10 mps 664 mmHg 53%
    10:00 +13°C° 0 mm 10 mps 664 mmHg 50%
    11:00 +14°C° 0 mm 10 mps 664 mmHg 47%
    12:00 +16°C° 0 mm 11 mps 664 mmHg 44%
    13:00 +16°C° 0 mm 11 mps 663 mmHg 43%
    14:00 +16°C° 0 mm 11 mps 662 mmHg 43%
    15:00 +16°C° 0 mm 11 mps 662 mmHg 42%
    16:00 +14°C° 0 mm 11 mps 662 mmHg 47%
    17:00 +13°C° 0 mm 10 mps 661 mmHg 52%
    18:00 +12°C° 0 mm 9 mps 661 mmHg 56%
    19:00 +11°C° 0 mm 9 mps 661 mmHg 60%
    20:00 +11°C° 0 mm 9 mps 661 mmHg 63%
    21:00 +10°C° 0 mm 9 mps 661 mmHg 67%
    22:00 +9°C° 0 mm 11 mps 661 mmHg 70%
    23:00 +8°C° 0 mm 13 mps 661 mmHg 74%

    3 March, Tuesday

    Time Temperature Precipitation Wind Pressure Humidity
    00:00 +8°C° 0 mm 15 mps 661 mmHg 78%
    01:00 +8°C° 0.2 mm 15 mps 661 mmHg 78%
    02:00 +6°C° 0.2 mm 16 mps 661 mmHg 78%
    03:00 +6°C° 0.2 mm 16 mps 661 mmHg 79%
    04:00 +5°C° 0 mm 15 mps 661 mmHg 78%
    05:00 +4°C° 0 mm 13 mps 661 mmHg 78%
    06:00 +4°C° 0 mm 12 mps 662 mmHg 78%
    07:00 +4°C° 0 mm 13 mps 662 mmHg 68%
    08:00 +5°C° 0 mm 14 mps 663 mmHg 59%
    09:00 +5°C° 0 mm 15 mps 663 mmHg 49%
    10:00 +6°C° 0 mm 15 mps 663 mmHg 44%
    11:00 +9°C° 0 mm 15 mps 664 mmHg 38%
    12:00 +10°C° 0 mm 16 mps 664 mmHg 33%
    13:00 +10°C° 0 mm 14 mps 664 mmHg 33%
    14:00 +12°C° 0 mm 13 mps 663 mmHg 34%
    15:00 +12°C° 0 mm 12 mps 663 mmHg 34%
    16:00 +11°C° 0 mm 11 mps 663 mmHg 38%
    17:00 +9°C° 0 mm 11 mps 663 mmHg 42%
    18:00 +8°C° 0 mm 10 mps 663 mmHg 46%
    19:00 +8°C° 0 mm 10 mps 664 mmHg 46%
    20:00 +7°C° 0 mm 10 mps 664 mmHg 46%
    21:00 +6°C° 0 mm 11 mps 665 mmHg 46%
    22:00 +6°C° 0 mm 10 mps 664 mmHg 46%
    23:00 +6°C° 0 mm 10 mps 664 mmHg 46%

    4 March, Wednesday

    Time Temperature Precipitation Wind Pressure Humidity
    00:00 +5°C° 0 mm 9 mps 664 mmHg 46%
    01:00 +5°C° 0 mm 9 mps 664 mmHg 48%
    02:00 +5°C° 0 mm 9 mps 664 mmHg 49%
    03:00 +5°C° 0 mm 9 mps 664 mmHg 50%
    04:00 +5°C° 0 mm 9 mps 664 mmHg 54%
    05:00 +5°C° 0 mm 9 mps 664 mmHg 57%
    06:00 +5°C° 0 mm 9 mps 664 mmHg 61%
    07:00 +6°C° 0 mm 9 mps 664 mmHg 58%
    08:00 +8°C° 0 mm 9 mps 665 mmHg 56%
    09:00 +9°C° 0 mm 10 mps 665 mmHg 53%
    10:00 +12°C° 0 mm 9 mps 666 mmHg 48%
    11:00 +15°C° 0 mm 8 mps 666 mmHg 43%
    12:00 +16°C° 0 mm 7 mps 666 mmHg 37%
    13:00 +17°C° 0 mm 8 mps 666 mmHg 36%
    14:00 +18°C° 0 mm 8 mps 665 mmHg 34%
    15:00 +18°C° 0 mm 8 mps 665 mmHg 33%
    16:00 +17°C° 0 mm 7 mps 665 mmHg 37%
    17:00 +16°C° 0 mm 6 mps 664 mmHg 41%
    18:00 +15°C° 0 mm 5 mps 664 mmHg 45%
    19:00 +14°C° 0 mm 4 mps 664 mmHg 47%
    20:00 +13°C° 0 mm 4 mps 664 mmHg 50%
    21:00 +12°C° 0 mm 3 mps 664 mmHg 52%
    22:00 +12°C° 0 mm 4 mps 663 mmHg 53%
    23:00 +12°C° 0 mm 4 mps 663 mmHg 53%
    Show more